TimeCAT,TemperatureF,Dew PointF,Humidity,Sea Level PressureIn,VisibilityMPH,Wind Direction,Wind SpeedMPH,Gust SpeedMPH,PrecipitationIn,Events,Conditions,WindDirDegrees,DateUTC
12:00 AM,66.2,62.6,88,30.04,6.2,NE,12.7,-,N/A,,Mostly Cloudy,50,2013-01-14 22:00:00
1:00 AM,66.2,64.4,94,30.04,6.2,NE,13.8,-,N/A,,Mostly Cloudy,40,2013-01-14 23:00:00
2:00 AM,66,64,91,,19,NE,15.0,,,,Mostly Cloudy,40,2013-01-15 00:00:00
2:00 AM,66.2,64.4,94,30.04,6.2,NE,15.0,-,N/A,,Mostly Cloudy,40,2013-01-15 00:00:00
5:00 AM,64.4,64.4,100,30.06,5.0,NE,8.1,-,N/A,,Light Drizzle,50,2013-01-15 03:00:00
6:00 AM,64.4,64.4,100,30.09,6.2,NE,13.8,-,N/A,,Mostly Cloudy,40,2013-01-15 04:00:00
7:00 AM,64.4,64.4,100,30.12,4.3,NNE,12.7,-,N/A,Rain,Light Rain,30,2013-01-15 05:00:00
8:00 AM,66,64,91,,19,NNE,13.8,,,Rain,Light Rain,20,2013-01-15 06:00:00
8:00 AM,66.2,64.4,94,30.12,6.2,NNE,13.8,27.6,N/A,,Mostly Cloudy,20,2013-01-15 06:00:00
9:00 AM,68.0,62.6,83,30.12,6.2,NNE,18.4,29.9,N/A,,Mostly Cloudy,20,2013-01-15 07:00:00
10:00 AM,69.8,62.6,78,30.12,6.2,NNE,19.6,-,N/A,,Mostly Cloudy,20,2013-01-15 08:00:00
11:00 AM,69.8,62.6,78,30.15,6.2,North,19.6,-,N/A,Rain,Light Rain Showers,10,2013-01-15 09:00:00
12:00 PM,68.0,64.4,88,30.12,6.2,NNE,15.0,-,N/A,Rain,Light Rain,30,2013-01-15 10:00:00
1:00 PM,71.6,64.4,78,30.12,6.2,North,13.8,-,N/A,,Mostly Cloudy,10,2013-01-15 11:00:00
2:00 PM,72,64,70,,19,North,13.8,,,,Partly Cloudy,10,2013-01-15 12:00:00
2:00 PM,71.6,64.4,78,30.09,6.2,North,13.8,-,N/A,,Mostly Cloudy,10,2013-01-15 12:00:00
3:00 PM,73.4,64.4,73,30.09,6.2,NNE,15.0,-,N/A,,Mostly Cloudy,20,2013-01-15 13:00:00
4:00 PM,73.4,62.6,69,30.06,6.2,North,11.5,-,N/A,,Mostly Cloudy,360,2013-01-15 14:00:00
5:00 PM,73.4,62.6,69,30.09,6.2,NNE,15.0,-,N/A,,Scattered Clouds,30,2013-01-15 15:00:00
6:00 PM,71.6,62.6,73,30.09,6.2,NNE,11.5,-,N/A,,Mostly Cloudy,30,2013-01-15 16:00:00
7:00 PM,69.8,62.6,78,30.15,6.2,NNE,9.2,-,N/A,,Mostly Cloudy,30,2013-01-15 17:00:00
9:00 PM,68.0,66.2,94,30.18,6.2,ENE,10.4,-,N/A,,Mostly Cloudy,70,2013-01-15 19:00:00
10:00 PM,68.0,64.4,88,30.18,6.2,ENE,11.5,-,N/A,,Mostly Cloudy,60,2013-01-15 20:00:00
11:00 PM,66.2,64.4,94,30.18,6.2,ENE,10.4,-,N/A,,Mostly Cloudy,70,2013-01-15 21:00:00